Wind_Speed
3 3 3 3 4 5 5 5 4 6 8 2 6 3 4 4 2 4 2 11 18 35 34 24 21 28 31 29 30 30 31 32 32 32 32 33 33 34 33 32 33 32 32 31 31 32 32 32 32
1 1 3 2 4 1 5 5 3 6 5 7 4 2 3 3 4 4 1 10 15 21 25 38 31 21 26 29 33 33 33 33 33 33 33 35 37 34 33 33 33 34 32 31 30 29 30 28 23
3 2 3 4 3 4 4 5 6 5 5 3 1 3 3 0 2 7 5 10 21 18 22 32 36 31 22 31 33 34 34 34 34 34 35 39 37 35 33 34 34 35 32 29 29 28 27 23 19
3 5 4 3 7 7 8 13 6 3 5 2 1 5 4 4 2 4 11 14 23 20 20 33 37 36 40 36 36 35 35 35 34 34 36 40 37 35 34 34 35 34 32 30 30 28 25 23 19
4 3 3 3 8 7 8 10 3 4 3 2 0 2 2 5 8 5 16 15 14 20 19 24 30 38 40 43 40 38 37 36 35 37 38 40 36 34 35 34 35 34 32 30 27 26 23 26 24
4 3 2 3 8 7 6 7 5 3 2 2 0 4 4 3 11 3 5 18 15 14 15 20 18 27 38 49 44 41 38 36 36 37 40 41 38 36 35 33 33 34 32 30 26 24 22 26 27
6 3 5 6 15 9 6 7 5 5 2 3 3 3 2 4 10 11 19 23 18 20 17 12 7 17 42 31 45 42 40 37 37 38 39 40 38 35 34 32 32 32 30 27 25 22 21 23 25
5 4 4 5 5 11 6 2 5 5 4 2 4 3 4 3 1 6 12 11 10 8 10 11 12 23 36 53 45 42 40 38 38 38 38 39 37 35 32 31 31 30 28 25 23 21 19 19 22
4 2 5 7 5 7 7 0 4 3 4 3 3 4 5 6 10 8 7 5 7 7 4 9 20 39 34 51 45 39 39 38 37 38 37 36 36 33 31 30 29 28 26 24 21 20 18 17 21
4 3 7 9 10 7 5 2 8 4 4 2 3 5 7 6 8 7 2 6 9 17 14 14 22 41 53 42 42 41 40 39 39 38 38 37 36 34 32 30 29 26 25 23 20 19 17 13 15
4 6 12 17 10 9 4 2 3 8 2 3 0 5 6 7 8 8 6 7 12 14 10 12 21 31 39 34 32 35 39 40 40 38 37 37 34 31 32 29 28 26 25 23 20 19 12 13 14
1 9 7 7 3 2 2 4 4 4 3 2 4 5 5 7 3 6 11 12 17 16 15 17 26 32 35 34 30 35 37 39 37 37 37 37 37 33 33 31 28 27 26 22 20 15 12 13 13
6 5 7 5 3 3 4 1 5 8 8 7 6 7 6 3 4 4 9 17 20 21 21 22 29 34 37 36 35 36 37 38 38 35 35 36 34 32 31 29 27 26 24 22 19 16 13 11 11
4 6 10 6 5 2 2 2 4 6 11 10 8 6 6 4 3 8 11 16 15 21 27 28 32 36 40 40 36 35 33 35 30 33 32 33 33 32 29 28 27 26 24 19 17 14 13 11 9
4 7 9 7 3 3 4 4 5 7 9 11 8 6 5 4 4 2 11 16 20 19 27 30 35 38 40 39 39 38 34 33 29 24 25 25 28 27 28 29 27 25 21 18 14 15 13 12 10
6 3 3 6 4 4 7 9 8 6 9 8 8 7 5 4 5 4 9 17 21 23 22 31 32 37 38 40 39 37 30 28 31 23 23 23 25 25 25 27 25 22 21 19 17 17 15 11 11
2 6 6 9 8 4 5 8 8 5 8 11 8 9 7 4 5 6 10 16 21 25 26 26 30 33 35 36 36 31 27 29 31 27 25 20 19 20 24 25 20 22 24 21 20 19 16 15 13
6 4 4 7 4 5 4 11 3 4 8 9 9 10 7 7 6 10 13 13 19 24 28 26 26 30 30 26 28 24 23 21 28 24 29 20 17 21 22 21 23 24 24 21 24 21 17 14 12
9 10 12 10 12 6 7 9 9 8 7 7 7 10 10 10 10 11 13 15 15 15 22 29 34 32 34 35 34 32 31 33 30 26 28 23 24 19 20 19 22 23 24 27 26 21 19 16 15
14 15 17 12 7 6 5 10 7 13 16 17 15 13 13 14 12 13 14 15 17 18 21 22 28 36 33 32 32 28 27 30 29 30 29 23 26 20 15 19 24 28 27 29 27 26 22 19 20
17 15 15 8 5 4 4 5 4 6 7 8 7 11 12 15 16 12 16 18 18 18 26 29 30 37 38 36 32 29 28 28 28 28 27 25 22 17 18 22 28 32 33 32 30 27 28 22 21
13 12 7 5 2 2 2 5 4 5 9 14 14 13 13 14 11 11 15 17 24 27 28 27 32 34 37 36 32 29 24 21 25 29 28 24 22 22 25 26 31 31 36 32 30 29 31 28 23
14 19 6 4 3 3 6 1 6 8 8 13 16 16 16 17 17 17 17 23 28 29 33 30 34 37 36 38 37 33 27 27 27 28 29 31 31 31 31 32 35 36 35 32 32 33 32 30 28
19 4 4 4 2 2 3 1 6 5 10 19 17 18 20 20 18 17 24 26 26 29 32 32 31 36 39 39 39 35 30 29 30 33 34 37 38 36 35 34 36 35 35 35 34 36 34 32 28
6 5 1 3 2 5 3 3 8 10 6 19 24 22 22 21 20 19 20 25 29 33 36 35 34 33 37 37 38 40 37 35 35 36 36 35 37 38 38 35 35 34 36 35 35 36 34 30 25
8 9 6 6 4 4 4 5 6 5 12 9 17 21 21 20 20 22 23 30 32 36 38 37 37 36 37 39 41 41 41 38 39 40 39 40 40 43 40 38 36 33 32 34 35 34 30 24 17
7 5 9 6 0 3 3 5 8 6 4 2 8 15 19 20 21 23 22 31 34 37 43 45 41 40 40 41 40 40 39 43 39 40 44 43 42 42 42 40 35 34 31 32 34 32 28 24 21
13 8 4 1 7 4 4 5 5 5 4 4 6 13 17 21 20 18 19 28 34 37 42 41 42 43 43 37 40 40 42 47 44 42 45 45 43 40 39 36 32 34 33 29 32 32 30 24 23
3 4 3 6 6 6 3 6 6 9 4 5 7 9 17 17 19 19 19 30 36 36 34 38 38 38 36 39 38 38 39 45 45 46 45 45 44 38 35 29 29 33 31 31 34 34 30 29 26
4 10 10 5 5 3 5 6 4 9 8 7 7 8 7 14 18 18 19 27 30 32 32 36 37 37 38 37 37 38 37 38 40 42 35 33 28 29 30 28 28 30 34 34 37 33 33 28 27
Wind_Direction
311 344 18 65 47 54 305 291 250 340 348 177 258 80 91 23 41 147 217 175 161 170 162 159 167 163 168 165 155 151 148 141 134 131 129 128 127 123 125 125 120 117 117 114 110 107 106 106 106
358 63 58 86 86 21 276 241 199 211 243 279 279 353 100 153 175 271 340 184 174 173 176 168 170 168 173 168 158 156 151 144 140 136 134 133 129 130 131 130 124 121 117 111 110 109 112 110 106
347 133 89 111 135 185 238 267 264 220 253 243 41 45 25 152 265 174 223 177 173 170 170 167 166 171 188 172 164 160 155 149 145 140 140 138 134 136 137 132 127 124 120 115 114 113 108 104 93
42 23 21 91 256 244 239 274 243 217 235 40 235 44 337 345 26 235 162 155 179 194 179 165 179 175 203 176 170 165 158 152 146 142 141 138 137 142 137 133 129 129 124 122 120 115 108 89 77
63 65 37 335 277 260 255 222 144 238 253 300 255 175 183 88 344 308 211 197 193 185 194 168 192 176 180 185 173 167 161 153 149 145 143 140 144 142 138 138 135 131 128 124 122 115 104 87 82
32 96 41 268 274 303 278 209 201 179 243 273 223 172 184 75 98 109 164 191 184 186 150 170 176 202 195 184 172 167 159 154 151 146 148 146 148 144 142 140 138 134 131 129 125 117 107 92 87
123 92 231 245 282 301 254 177 197 149 340 2 325 313 332 65 107 125 131 131 135 149 137 141 200 255 231 198 169 162 159 154 150 149 149 149 146 146 146 144 139 137 134 131 126 116 108 97 86
114 110 290 253 288 287 255 206 107 126 226 213 205 48 298 275 92 116 116 152 157 169 234 239 249 264 225 174 163 159 155 155 152 149 150 151 149 149 146 145 140 137 137 134 127 117 105 97 88
126 70 274 264 269 267 288 228 48 232 140 230 216 189 195 245 124 129 140 123 108 143 206 235 221 228 224 148 154 153 158 153 150 147 149 150 151 150 148 145 142 141 140 136 130 120 116 104 93
116 136 252 245 270 251 251 134 129 165 210 245 238 213 167 225 148 139 201 131 99 137 126 105 46 122 121 136 145 153 151 149 148 148 150 151 152 152 150 149 148 143 140 133 130 126 117 124 110
188 212 267 276 263 246 301 45 353 149 16 264 19 265 167 171 164 149 142 139 142 160 126 101 142 84 104 127 140 145 148 149 148 151 150 148 145 151 150 152 149 147 143 140 139 127 141 120 115
290 245 240 278 255 57 347 133 113 74 165 127 61 103 134 161 150 139 140 145 152 165 158 126 123 126 153 152 146 145 146 145 148 149 148 148 147 155 155 154 155 153 146 143 141 144 132 141 127
197 268 296 236 239 134 173 207 148 149 126 117 107 106 111 109 127 140 136 138 149 145 154 153 142 143 151 155 155 151 144 148 149 150 151 150 149 156 157 155 159 152 149 152 148 150 151 149 131
288 302 287 247 286 280 156 194 167 154 137 141 147 145 120 136 145 142 132 131 146 143 146 152 153 151 156 156 152 144 145 145 144 150 151 155 157 161 157 161 161 157 160 160 155 162 168 152 133
288 321 314 307 276 263 129 295 230 137 153 146 136 127 106 138 106 105 141 136 147 142 145 144 148 151 151 147 147 146 137 144 158 153 152 157 161 163 161 166 163 162 165 164 168 170 166 150 142
346 316 291 265 274 209 114 271 271 150 135 129 145 127 131 92 109 126 134 138 148 142 137 145 144 146 146 151 153 152 153 154 157 154 155 159 166 170 171 173 166 170 174 176 179 176 170 167 169
316 252 249 301 220 137 148 258 246 165 145 151 154 148 127 112 146 138 138 140 143 155 151 145 154 152 152 162 164 165 153 154 157 165 161 159 179 178 184 179 175 182 183 183 184 184 180 180 184
226 226 272 255 275 200 175 251 202 209 163 163 153 141 146 164 205 156 146 146 146 151 159 155 148 157 168 158 151 147 150 170 164 168 168 171 178 205 187 185 185 188 193 194 190 185 185 192 201
266 276 268 269 266 189 234 254 213 173 146 158 176 153 173 177 172 171 153 152 153 148 153 162 161 164 171 165 163 167 178 180 177 173 187 196 203 200 197 197 196 199 199 193 193 191 188 191 192
254 261 272 271 251 162 252 254 241 172 185 182 173 174 182 182 172 174 169 169 166 168 167 166 173 171 167 164 171 182 184 183 187 188 196 210 206 208 202 211 205 204 202 199 196 195 185 192 191
250 251 261 249 302 237 230 289 183 192 155 172 183 172 178 192 177 177 178 175 178 180 183 183 180 179 181 178 179 184 186 198 214 219 221 216 215 218 219 222 217 208 206 203 200 200 201 188 194
256 246 243 271 59 262 44 282 255 196 160 182 179 183 187 198 192 180 184 180 186 196 191 194 193 189 186 188 190 191 199 204 219 222 224 227 230 232 233 230 225 217 210 211 209 209 209 211 201
243 249 234 239 261 59 329 19 271 120 204 201 198 191 190 195 190 192 193 198 199 193 193 196 196 199 197 199 201 201 203 219 222 227 231 233 230 232 234 231 223 215 214 215 213 210 211 214 210
242 212 53 38 72 328 334 161 276 205 208 201 205 199 191 192 192 199 200 197 201 197 195 200 198 201 201 203 205 206 212 217 222 223 223 227 228 228 227 227 219 216 219 217 218 217 216 212 216
195 116 264 332 345 232 280 274 242 272 238 192 197 200 196 192 187 191 193 194 198 197 198 199 198 199 202 204 207 213 219 220 222 221 220 219 220 220 221 219 217 217 220 221 219 218 215 211 202
201 174 155 209 201 247 272 243 249 215 275 194 201 193 190 188 191 195 195 194 196 198 198 199 201 206 207 212 216 219 222 222 225 224 221 223 221 223 224 221 223 219 216 220 218 215 211 190 185
222 173 185 124 34 102 251 291 291 311 347 110 190 178 186 194 195 200 198 199 198 196 201 202 204 208 211 214 215 218 220 222 223 223 225 227 228 226 226 223 218 214 215 217 215 213 194 192 187
197 165 94 325 164 197 269 249 236 278 215 299 200 186 194 196 198 201 202 202 206 206 205 206 210 212 211 210 213 216 218 225 224 225 224 223 228 225 224 220 216 218 217 218 209 199 191 191 207
181 164 131 144 149 165 206 262 219 203 254 224 219 188 192 193 195 198 200 206 208 208 206 207 212 217 216 215 217 218 220 225 225 226 229 227 226 224 221 212 215 216 213 211 203 196 200 205 209
276 208 175 161 208 168 166 263 239 188 211 243 262 211 212 192 197 201 202 203 204 209 202 208 209 214 215 218 217 222 221 225 228 226 225 219 216 223 224 209 212 211 209 206 203 203 203 203 200
Height
785 785 785 785 813 824 826 811 788 787 782 769 765 757 766 777 775 785 769 764 765 766 767 775 784 783 791 795 793 796 799 799 798 801 805 809 816 820 823 827 828 830 832 833 835 837 838 841 844
784 785 786 795 822 833 826 796 793 784 777 770 765 762 764 774 769 765 764 768 771 770 773 760 781 791 796 798 793 796 798 799 801 803 805 810 816 821 824 828 830 832 835 836 838 840 842 844 846
783 785 794 807 827 830 822 790 779 778 775 771 766 765 769 772 768 766 764 765 770 773 776 780 782 784 793 797 797 797 799 799 801 801 805 810 815 821 826 827 830 833 837 838 840 844 846 848 849
781 787 795 811 816 804 793 781 773 778 772 769 769 772 770 771 772 772 766 764 767 770 775 782 789 766 794 793 796 797 799 799 800 803 807 812 818 821 824 828 830 836 838 839 842 846 849 851 849
783 794 812 815 809 790 776 770 774 778 772 768 766 774 773 768 772 771 769 769 764 766 774 781 785 784 785 788 791 795 798 798 799 800 807 814 821 824 826 829 831 836 840 842 846 848 851 852 852
795 799 820 826 802 782 769 763 771 768 767 767 769 766 763 764 763 767 763 766 764 767 773 782 780 784 787 785 785 792 796 800 801 800 807 812 820 825 827 831 834 836 841 844 847 849 852 855 855
797 808 816 810 795 786 766 759 764 767 772 771 771 771 767 764 765 761 765 763 765 767 766 770 772 774 778 781 782 789 796 798 799 803 808 814 821 826 829 832 836 839 842 847 849 851 853 856 856
788 799 803 801 796 789 760 754 758 763 774 764 763 766 767 758 756 749 762 765 764 764 764 764 767 758 774 770 783 786 793 800 799 801 808 816 821 825 830 835 838 840 844 849 851 853 855 857 857
777 806 813 799 786 772 755 755 762 764 766 762 760 755 753 759 757 755 763 768 767 762 758 759 751 750 749 758 779 785 797 799 802 804 811 817 823 828 833 836 839 843 846 850 853 855 857 860 859
785 808 793 773 767 765 753 753 759 764 763 760 758 752 752 758 756 757 762 765 766 761 762 756 746 730 728 765 780 792 793 798 802 807 812 818 822 827 832 836 840 845 848 850 854 856 858 863 862
780 793 771 764 760 753 750 759 758 760 767 758 755 749 754 757 759 756 762 761 765 762 764 764 749 744 756 773 785 790 792 798 802 808 811 816 822 830 833 838 841 846 848 851 854 856 863 864 863
777 769 766 758 753 747 752 754 756 763 762 755 754 753 755 756 757 759 763 763 765 765 766 767 765 762 773 781 786 790 795 797 804 809 811 816 820 831 835 838 843 846 847 851 854 859 863 865 865
771 764 758 754 749 746 746 750 752 761 761 761 762 758 758 757 760 759 761 764 765 766 766 767 768 766 774 782 784 792 796 803 806 810 812 817 822 832 836 839 844 845 848 853 854 859 862 865 864
761 761 757 751 749 744 748 750 752 759 756 762 763 760 756 759 760 761 761 764 766 764 766 770 773 774 776 782 790 794 798 803 809 811 814 818 822 831 834 840 843 844 847 852 854 858 862 863 863
759 768 760 751 747 749 747 756 752 749 753 757 763 758 760 761 762 763 762 764 767 767 767 770 774 776 782 786 794 799 800 803 811 814 817 821 826 830 833 838 841 843 848 852 855 859 861 863 865
770 769 776 752 745 744 748 769 747 747 750 759 765 764 763 763 766 766 767 766 769 770 771 772 775 779 785 791 798 802 804 809 811 816 819 824 828 831 833 837 839 843 847 851 855 857 859 862 865
778 790 776 762 743 747 750 760 746 744 749 758 765 764 764 764 767 768 769 770 772 772 774 776 780 783 789 795 798 803 804 807 809 815 818 823 829 831 835 837 838 843 847 849 853 857 858 860 863
789 784 768 768 748 749 754 754 747 747 748 755 763 762 764 769 766 768 769 771 773 776 779 782 785 789 795 797 800 802 803 809 811 815 818 826 826 832 834 836 839 843 845 849 852 855 857 859 862
771 773 772 756 740 748 751 750 746 750 751 757 760 759 764 768 770 770 769 771 774 779 782 785 789 792 796 798 801 805 807 809 811 815 819 825 830 832 832 834 837 840 843 845 850 852 854 857 860
767 772 767 751 735 742 740 747 742 746 745 746 753 758 759 765 767 770 767 772 773 776 780 784 788 790 795 795 799 803 806 807 812 813 819 824 827 827 826 830 833 836 840 843 845 847 849 852 856
761 767 762 752 737 734 740 750 742 740 742 749 752 753 757 757 757 765 770 770 770 775 778 780 783 788 792 795 798 803 804 810 813 812 816 819 821 822 825 828 829 832 836 839 841 843 845 847 851
764 743 740 743 750 766 739 773 747 742 746 747 749 751 754 757 754 759 763 765 770 774 779 783 786 788 791 796 800 801 804 804 809 809 812 812 815 820 822 824 826 831 834 836 837 840 842 844 846
749 736 735 735 745 753 754 766 746 740 749 748 744 745 748 752 752 753 758 762 766 773 777 781 784 788 791 795 798 798 801 805 805 809 809 811 814 817 819 821 824 826 830 832 833 836 837 839 842
727 729 737 745 753 773 759 761 753 744 728 732 735 738 741 746 749 754 756 761 766 771 774 779 782 784 788 792 794 796 797 800 805 804 804 808 809 812 814 817 819 821 823 826 828 830 833 834 837
728 743 772 779 776 781 756 756 742 718 712 710 719 725 732 737 743 749 753 756 758 761 766 772 775 777 782 786 789 791 793 795 795 796 798 800 802 804 805 809 811 814 818 821 824 826 828 831 834
732 737 773 777 787 773 752 756 734 709 702 699 702 709 720 730 734 737 739 744 749 753 756 761 765 769 773 776 778 782 785 786 787 788 790 791 793 796 800 802 805 810 814 817 820 821 825 827 834
726 740 727 756 756 771 758 738 717 704 698 691 702 704 716 719 725 727 732 737 740 743 746 748 755 759 763 766 771 773 776 778 778 780 782 784 786 788 791 796 801 805 808 810 813 816 821 824 827
710 709 744 749 770 772 757 748 737 714 700 699 703 704 706 707 714 721 727 730 732 735 738 747 750 750 752 759 762 764 765 768 771 774 773 776 779 782 786 790 794 798 801 805 809 812 814 820 823
713 716 717 725 743 764 771 753 716 707 698 698 697 696 697 701 705 710 715 719 721 728 735 738 745 748 751 752 753 756 757 759 763 765 765 768 772 776 781 784 788 791 796 800 804 807 810 814 818
700 702 706 736 740 742 755 748 699 700 698 697 699 691 693 691 694 698 702 706 712 716 725 728 732 736 740 743 745 746 751 754 757 759 761 765 770 774 777 778 784 788 792 795 798 803 805 810 813